| time (UTC) | temp C | wind direction | speed KPH | gust KPH | rain 1hr cm | rain 24hr cm | rain mn cm | humidity % | barometer mb |
| 20260507013543 | 13 | 193 | 1.6 | 4.8 | 0.00 | 0.00 | 0.00 | 53 | 1009.1 |
| 20260507013018 | 13 | 172 | 0.0 | 3.2 | 0.00 | 0.00 | 0.00 | 53 | 1009.1 |
| 20260507012540 | 13 | 159 | 0.0 | 1.6 | 0.00 | 0.00 | 0.00 | 52 | 1009.0 |
| 20260507012042 | 13 | 139 | 0.0 | 3.2 | 0.00 | 0.00 | 0.00 | 51 | 1009.1 |
| 20260507011526 | 13 | 184 | 0.0 | 3.2 | 0.00 | 0.00 | 0.00 | 51 | 1009.0 |
| 20260507011022 | 13 | 217 | 1.6 | 3.2 | 0.00 | 0.00 | 0.00 | 50 | 1009.2 |
| 20260507010523 | 13 | 207 | 0.0 | 1.6 | 0.00 | 0.00 | 0.00 | 50 | 1009.1 |
| 20260507010104 | 13 | 183 | 1.6 | 3.2 | 0.00 | 0.00 | 0.00 | 50 | 1009.1 |
| 20260507005528 | 13 | 219 | 3.2 | 3.2 | 0.00 | 0.00 | 0.00 | 51 | 1009.1 |
| 20260507005023 | 13 | 214 | 1.6 | 3.2 | 0.00 | 0.00 | 0.00 | 52 | 1009.2 |
| 20260507004521 | 13 | 170 | 0.0 | 3.2 | 0.00 | 0.00 | 0.00 | 52 | 1009.3 |
| 20260507004038 | 13 | 156 | 0.0 | 3.2 | 0.00 | 0.00 | 0.00 | 52 | 1009.4 |
| 20260507003541 | 13 | 212 | 1.6 | 3.2 | 0.00 | 0.00 | 0.00 | 52 | 1009.4 |
| 20260507003026 | 13 | 160 | 0.0 | 0.0 | 0.00 | 0.00 | 0.00 | 52 | 1009.4 |
| 20260507002522 | 13 | 160 | 0.0 | 0.0 | 0.00 | 0.00 | 0.00 | 52 | 1009.4 |
| 20260507002020 | 13 | 93 | 0.0 | 3.2 | 0.00 | 0.00 | 0.00 | 51 | 1009.5 |
| 20260507001546 | 13 | 68 | 3.2 | 3.2 | 0.00 | 0.00 | 0.00 | 52 | 1009.5 |
| 20260507001037 | 13 | 110 | 0.0 | 0.0 | 0.00 | 0.00 | 0.00 | 53 | 1009.5 |
| 20260507000616 | 13 | 107 | 0.0 | 0.0 | 0.00 | 0.00 | 0.00 | 53 | 1007.9 |
| 20260507000106 | 13 | 108 | 0.0 | 3.2 | 0.00 | 0.00 | 0.00 | 53 | 1009.5 |
| 20260506235625 | 13 | 113 | 0.0 | 4.8 | 0.00 | 0.00 | 0.00 | 53 | 1007.9 |
| 20260506235039 | 13 | 108 | 0.0 | 4.8 | 0.00 | 0.00 | 0.00 | 53 | 1009.5 |
| 20260506234542 | 13 | 136 | 3.2 | 4.8 | 0.00 | 0.00 | 0.00 | 53 | 1009.5 |
| 20260506234036 | 13 | 124 | 0.0 | 3.2 | 0.00 | 0.00 | 0.00 | 54 | 1009.6 |
| 20260506233604 | 13 | 152 | 0.0 | 1.6 | 0.00 | 0.00 | 0.00 | 54 | 1007.9 |
| 20260506233043 | 13 | 119 | 0.0 | 0.0 | 0.00 | 0.00 | 0.00 | 53 | 1009.5 |
| 20260506232517 | 13 | 101 | 0.0 | 4.8 | 0.00 | 0.00 | 0.00 | 53 | 1009.4 |
| 20260506232045 | 13 | 120 | 0.0 | 19.3 | 0.00 | 0.00 | 0.00 | 53 | 1009.4 |
| 20260506231523 | 13 | 107 | 8.0 | 19.3 | 0.00 | 0.00 | 0.00 | 51 | 1009.5 |
| 20260506231031 | 13 | 205 | 0.0 | 0.0 | 0.00 | 0.00 | 0.00 | 50 | 1009.4 |
| 20260506230536 | 13 | 214 | 0.0 | 0.0 | 0.00 | 0.00 | 0.00 | 50 | 1009.5 |
| 20260506230049 | 14 | 107 | 0.0 | 0.0 | 0.00 | 0.00 | 0.00 | 50 | 1009.5 |
| 20260506225544 | 14 | 106 | 0.0 | 0.0 | 0.00 | 0.00 | 0.00 | 50 | 1009.5 |
| 20260506225022 | 15 | 97 | 0.0 | 3.2 | 0.00 | 0.00 | 0.00 | 49 | 1009.4 |
| 20260506224542 | 15 | 72 | 0.0 | 3.2 | 0.00 | 0.00 | 0.00 | 47 | 1009.4 |
| 20260506224110 | 15 | 77 | 0.0 | 0.0 | 0.00 | 0.00 | 0.00 | 43 | 1007.9 |
| 20260506223529 | 16 | 46 | 0.0 | 0.0 | 0.00 | 0.00 | 0.00 | 42 | 1009.4 |
| 20260506223045 | 16 | 318 | 0.0 | 0.0 | 0.00 | 0.00 | 0.00 | 41 | 1009.4 |
| 20260506222530 | 16 | 318 | 0.0 | 0.0 | 0.00 | 0.00 | 0.00 | 41 | 1009.4 |
| 20260506222026 | 16 | 285 | 0.0 | 0.0 | 0.00 | 0.00 | 0.00 | 41 | 1009.4 |
| 20260506221545 | 16 | 276 | 0.0 | 0.0 | 0.00 | 0.00 | 0.00 | 41 | 1009.4 |
| 20260506221052 | 16 | 316 | 0.0 | 0.0 | 0.00 | 0.00 | 0.00 | 41 | 1009.4 |
| 20260506220528 | 16 | 317 | 0.0 | 0.0 | 0.00 | 0.00 | 0.00 | 41 | 1009.4 |
| 20260506220116 | 16 | 338 | 0.0 | 0.0 | 0.00 | 0.00 | 0.00 | 40 | 1009.5 |
| 20260506215538 | 16 | 75 | 0.0 | 3.2 | 0.00 | 0.00 | 0.00 | 40 | 1009.5 |
| 20260506215033 | 16 | 312 | 0.0 | 3.2 | 0.00 | 0.00 | 0.00 | 40 | 1009.6 |
| 20260506214534 | 16 | 322 | 0.0 | 4.8 | 0.00 | 0.00 | 0.00 | 40 | 1009.6 |
| 20260506214035 | 16 | 312 | 0.0 | 4.8 | 0.00 | 0.00 | 0.00 | 40 | 1009.5 |
| 20260506213605 | 16 | 276 | 0.0 | 3.2 | 0.00 | 0.00 | 0.00 | 40 | 1008.0 |
| 20260506213021 | 16 | 281 | 0.0 | 3.2 | 0.00 | 0.00 | 0.00 | 40 | 1009.6 |
| 20260506212529 | 16 | 294 | 0.0 | 3.2 | 0.00 | 0.00 | 0.00 | 39 | 1009.6 |
| 20260506212035 | 16 | 289 | 1.6 | 3.2 | 0.00 | 0.00 | 0.00 | 38 | 1009.6 |
| 20260506211604 | 16 | 288 | 0.0 | 1.6 | 0.00 | 0.00 | 0.00 | 38 | 1008.0 |
| 20260506211022 | 17 | 317 | 0.0 | 1.6 | 0.00 | 0.00 | 0.00 | 38 | 1009.5 |
| 20260506210521 | 17 | 286 | 0.0 | 1.6 | 0.00 | 0.00 | 0.00 | 38 | 1009.5 |
| 20260506210100 | 17 | 271 | 0.0 | 1.6 | 0.00 | 0.00 | 0.00 | 37 | 1009.5 |
| 20260506205520 | 17 | 288 | 0.0 | 1.6 | 0.00 | 0.00 | 0.00 | 37 | 1009.5 |
| 20260506205037 | 17 | 286 | 0.0 | 3.2 | 0.00 | 0.00 | 0.00 | 37 | 1009.4 |
| 20260506204559 | 17 | 304 | 1.6 | 6.4 | 0.00 | 0.00 | 0.00 | 36 | 1009.4 |
| 20260506204054 | 17 | 293 | 0.0 | 6.4 | 0.00 | 0.00 | 0.00 | 36 | 1009.3 |
| 20260506203525 | 17 | 323 | 1.6 | 6.4 | 0.00 | 0.00 | 0.00 | 35 | 1009.3 |
| 20260506203034 | 17 | 300 | 0.0 | 4.8 | 0.00 | 0.00 | 0.00 | 34 | 1009.3 |
| 20260506202519 | 18 | 288 | 0.0 | 6.4 | 0.00 | 0.00 | 0.00 | 34 | 1009.3 |
| 20260506201030 | 18 | 8 | 0.0 | 4.8 | 0.00 | 0.00 | 0.00 | 33 | 1009.2 |
| 20260506200535 | 18 | 321 | 0.0 | 4.8 | 0.00 | 0.00 | 0.00 | 33 | 1009.1 |
| 20260506200052 | 18 | 280 | 1.6 | 3.2 | 0.00 | 0.00 | 0.00 | 33 | 1009.1 |
| 20260506195641 | 18 | 319 | 1.6 | 4.8 | 0.00 | 0.00 | 0.00 | 33 | 1007.5 |
| 20260506195054 | 18 | 318 | 0.0 | 4.8 | 0.00 | 0.00 | 0.00 | 33 | 1009.0 |
| 20260506194535 | 18 | 305 | 0.0 | 6.4 | 0.00 | 0.00 | 0.00 | 33 | 1009.0 |
| 20260506194032 | 18 | 319 | 3.2 | 4.8 | 0.00 | 0.00 | 0.00 | 33 | 1009.0 |
| 20260506193536 | 18 | 302 | 3.2 | 6.4 | 0.00 | 0.00 | 0.00 | 33 | 1009.0 |
| 20260506193029 | 18 | 335 | 3.2 | 6.4 | 0.00 | 0.00 | 0.00 | 33 | 1008.9 |
| 20260506192603 | 18 | 309 | 3.2 | 6.4 | 0.00 | 0.00 | 0.00 | 33 | 1007.4 |
| 20260506192019 | 18 | 309 | 3.2 | 6.4 | 0.00 | 0.00 | 0.00 | 33 | 1008.9 |
| 20260506191522 | 19 | 295 | 0.0 | 6.4 | 0.00 | 0.00 | 0.00 | 33 | 1008.9 |
| 20260506191045 | 19 | 310 | 0.0 | 4.8 | 0.00 | 0.00 | 0.00 | 33 | 1008.8 |
| 20260506190541 | 19 | 283 | 1.6 | 4.8 | 0.00 | 0.00 | 0.00 | 32 | 1008.9 |
| 20260506190056 | 19 | 317 | 0.0 | 6.4 | 0.00 | 0.00 | 0.00 | 32 | 1008.8 |
| 20260506185536 | 19 | 303 | 1.6 | 9.7 | 0.00 | 0.00 | 0.00 | 32 | 1008.9 |
| 20260506185045 | 20 | 273 | 4.8 | 9.7 | 0.00 | 0.00 | 0.00 | 31 | 1008.9 |
| 20260506184527 | 20 | 290 | 3.2 | 9.7 | 0.00 | 0.00 | 0.00 | 30 | 1008.9 |
| 20260506184102 | 21 | 352 | 4.8 | 9.7 | 0.00 | 0.00 | 0.00 | 29 | 1008.8 |
| 20260506183541 | 21 | 273 | 3.2 | 8.0 | 0.00 | 0.00 | 0.00 | 28 | 1008.8 |
| 20260506183021 | 21 | 273 | 0.0 | 6.4 | 0.00 | 0.00 | 0.00 | 28 | 1008.9 |
| 20260506182552 | 21 | 260 | 0.0 | 11.3 | 0.00 | 0.00 | 0.00 | 28 | 1008.8 |
| 20260506182018 | 21 | 108 | 0.0 | 11.3 | 0.00 | 0.00 | 0.00 | 28 | 1008.8 |
| 20260506181618 | 21 | 303 | 0.0 | 8.0 | 0.00 | 0.00 | 0.00 | 28 | 1007.2 |
| 20260506181032 | 21 | 270 | 1.6 | 9.7 | 0.00 | 0.00 | 0.00 | 28 | 1008.8 |
| 20260506180524 | 21 | 293 | 6.4 | 9.7 | 0.00 | 0.00 | 0.00 | 28 | 1008.8 |
| 20260506180052 | 21 | 312 | 0.0 | 9.7 | 0.00 | 0.00 | 0.00 | 28 | 1008.8 |
| 20260506175528 | 21 | 287 | 4.8 | 11.3 | 0.00 | 0.00 | 0.00 | 28 | 1008.8 |
| 20260506175017 | 21 | 338 | 4.8 | 11.3 | 0.00 | 0.00 | 0.00 | 28 | 1008.9 |
| 20260506174534 | 21 | 110 | 1.6 | 6.4 | 0.00 | 0.00 | 0.00 | 27 | 1009.0 |
| 20260506174052 | 21 | 271 | 3.2 | 6.4 | 0.00 | 0.00 | 0.00 | 27 | 1009.0 |
| 20260506173537 | 21 | 181 | 0.0 | 6.4 | 0.00 | 0.00 | 0.00 | 27 | 1009.0 |
| 20260506173036 | 21 | 284 | 0.0 | 11.3 | 0.00 | 0.00 | 0.00 | 27 | 1009.0 |
| 20260506172522 | 22 | 254 | 3.2 | 11.3 | 0.00 | 0.00 | 0.00 | 27 | 1009.1 |
| 20260506172032 | 22 | 222 | 6.4 | 9.7 | 0.00 | 0.00 | 0.00 | 26 | 1009.1 |
| 20260506171602 | 21 | 245 | 0.0 | 9.7 | 0.00 | 0.00 | 0.00 | 27 | 1009.0 |
| 20260506171109 | 21 | 276 | 1.6 | 9.7 | 0.00 | 0.00 | 0.00 | 26 | 1007.4 |
| 20260506170530 | 21 | 165 | 4.8 | 9.7 | 0.00 | 0.00 | 0.00 | 27 | 1009.1 |
| 20260506165528 | 22 | 238 | 4.8 | 6.4 | 0.00 | 0.00 | 0.00 | 26 | 1009.1 |
| 20260506165017 | 22 | 270 | 0.0 | 4.8 | 0.00 | 0.00 | 0.00 | 27 | 1009.1 |
| 20260506164623 | 22 | 125 | 1.6 | 4.8 | 0.00 | 0.00 | 0.00 | 25 | 1007.5 |
| 20260506164025 | 22 | 17 | 0.0 | 1.6 | 0.00 | 0.00 | 0.00 | 26 | 1009.2 |
| 20260506163147 | 21 | 322 | 3.2 | 9.7 | 0.00 | 0.00 | 0.00 | 27 | 1007.6 |
| 20260506162526 | 21 | 165 | 3.2 | 8.0 | 0.00 | 0.00 | 0.00 | 27 | 1009.2 |
| 20260506162116 | 22 | 297 | 4.8 | 11.3 | 0.00 | 0.00 | 0.00 | 26 | 1007.7 |
| 20260506161610 | 22 | 146 | 1.6 | 11.3 | 0.00 | 0.00 | 0.00 | 26 | 1007.7 |
| 20260506161039 | 22 | 269 | 1.6 | 8.0 | 0.00 | 0.00 | 0.00 | 26 | 1009.3 |
| 20260506160522 | 22 | 304 | 4.8 | 8.0 | 0.00 | 0.00 | 0.00 | 26 | 1009.3 |
| 20260506160057 | 22 | 290 | 0.0 | 12.9 | 0.00 | 0.00 | 0.00 | 26 | 1009.3 |
| 20260506155541 | 22 | 323 | 3.2 | 12.9 | 0.00 | 0.00 | 0.00 | 26 | 1009.3 |
| 20260506155040 | 22 | 126 | 3.2 | 11.3 | 0.00 | 0.00 | 0.00 | 26 | 1009.4 |
| 20260506154522 | 22 | 345 | 4.8 | 11.3 | 0.00 | 0.00 | 0.00 | 26 | 1009.5 |
| 20260506154017 | 22 | 27 | 3.2 | 8.0 | 0.00 | 0.00 | 0.00 | 26 | 1009.5 |
| 20260506153540 | 22 | 119 | 0.0 | 6.4 | 0.00 | 0.00 | 0.00 | 26 | 1009.6 |
| 20260506153022 | 22 | 345 | 1.6 | 8.0 | 0.00 | 0.00 | 0.00 | 27 | 1009.6 |
| 20260506152539 | 22 | 93 | 4.8 | 8.0 | 0.00 | 0.00 | 0.00 | 26 | 1009.6 |
| 20260506152028 | 22 | 93 | 1.6 | 6.4 | 0.00 | 0.00 | 0.00 | 26 | 1009.7 |
| 20260506151532 | 22 | 244 | 0.0 | 9.7 | 0.00 | 0.00 | 0.00 | 27 | 1009.7 |
| 20260506151051 | 22 | 317 | 3.2 | 9.7 | 0.00 | 0.00 | 0.00 | 26 | 1009.7 |
| 20260506150555 | 22 | 75 | 0.0 | 6.4 | 0.00 | 0.00 | 0.00 | 27 | 1009.8 |
| 20260506145528 | 22 | 265 | 1.6 | 11.3 | 0.00 | 0.00 | 0.00 | 28 | 1010.0 |
| 20260506144536 | 22 | 53 | 0.0 | 11.3 | 0.00 | 0.00 | 0.00 | 28 | 1010.1 |
| 20260506144029 | 21 | 13 | 0.0 | 12.9 | 0.00 | 0.00 | 0.00 | 29 | 1010.1 |
| 20260506143517 | 21 | 70 | 3.2 | 14.5 | 0.00 | 0.00 | 0.00 | 29 | 1010.2 |
| 20260506143041 | 21 | 285 | 6.4 | 14.5 | 0.00 | 0.00 | 0.00 | 30 | 1010.2 |
| 20260506142628 | 21 | 70 | 4.8 | 14.5 | 0.00 | 0.00 | 0.00 | 30 | 1008.8 |
| 20260506142023 | 21 | 65 | 3.2 | 14.5 | 0.00 | 0.00 | 0.00 | 31 | 1010.4 |
| 20260506141618 | 21 | 106 | 6.4 | 11.3 | 0.00 | 0.00 | 0.00 | 29 | 1008.9 |
| 20260506141016 | 21 | 311 | 1.6 | 11.3 | 0.00 | 0.00 | 0.00 | 29 | 1010.7 |
| 20260506140528 | 21 | 92 | 4.8 | 11.3 | 0.00 | 0.00 | 0.00 | 28 | 1010.7 |
| 20260506135516 | 21 | 245 | 3.2 | 14.5 | 0.00 | 0.00 | 0.00 | 30 | 1010.8 |
| 20260506134550 | 20 | 89 | 3.2 | 9.7 | 0.00 | 0.00 | 0.00 | 30 | 1010.8 |
| 20260506134033 | 20 | 134 | 1.6 | 4.8 | 0.00 | 0.00 | 0.00 | 31 | 1010.9 |
| 20260506133521 | 19 | 283 | 1.6 | 4.8 | 0.00 | 0.00 | 0.00 | 31 | 1011.0 |
| 20260506133028 | 19 | 105 | 0.0 | 6.4 | 0.00 | 0.00 | 0.00 | 32 | 1011.0 |
| 20260506132523 | 18 | 277 | 3.2 | 9.7 | 0.00 | 0.00 | 0.00 | 33 | 1011.0 |
| 20260506132036 | 18 | 241 | 6.4 | 11.3 | 0.00 | 0.00 | 0.00 | 33 | 1011.1 |
| 20260506131519 | 19 | 226 | 6.4 | 9.7 | 0.00 | 0.00 | 0.00 | 32 | 1011.1 |
| 20260506131049 | 20 | 208 | 4.8 | 8.0 | 0.00 | 0.00 | 0.00 | 32 | 1011.1 |
| 20260506130523 | 20 | 353 | 1.6 | 4.8 | 0.00 | 0.00 | 0.00 | 31 | 1011.2 |
| 20260506130042 | 20 | 330 | 0.0 | 9.7 | 0.00 | 0.00 | 0.00 | 32 | 1011.2 |
| 20260506125543 | 20 | 177 | 1.6 | 9.7 | 0.00 | 0.00 | 0.00 | 33 | 1011.2 |
| 20260506125033 | 20 | 139 | 4.8 | 9.7 | 0.00 | 0.00 | 0.00 | 31 | 1011.3 |
| 20260506124603 | 21 | 82 | 3.2 | 6.4 | 0.00 | 0.00 | 0.00 | 31 | 1011.3 |
| 20260506124041 | 21 | 113 | 4.8 | 6.4 | 0.00 | 0.00 | 0.00 | 31 | 1011.4 |
| 20260506123539 | 21 | 305 | 0.0 | 6.4 | 0.00 | 0.00 | 0.00 | 31 | 1011.4 |
| 20260506123024 | 20 | 247 | 1.6 | 8.0 | 0.00 | 0.00 | 0.00 | 31 | 1011.4 |
| 20260506122539 | 20 | 134 | 3.2 | 12.9 | 0.00 | 0.00 | 0.00 | 32 | 1011.4 |
| 20260506122019 | 20 | 244 | 6.4 | 12.9 | 0.00 | 0.00 | 0.00 | 31 | 1011.5 |
| 20260506121549 | 20 | 180 | 3.2 | 11.3 | 0.00 | 0.00 | 0.00 | 32 | 1011.7 |
| 20260506121019 | 19 | 220 | 4.8 | 14.5 | 0.00 | 0.00 | 0.00 | 33 | 1011.8 |
| 20260506120518 | 19 | 135 | 4.8 | 14.5 | 0.00 | 0.00 | 0.00 | 33 | 1011.7 |
| 20260506120136 | 19 | 187 | 3.2 | 11.3 | 0.00 | 0.00 | 0.00 | 32 | 1010.2 |
| 20260506115539 | 19 | 309 | 4.8 | 11.3 | 0.00 | 0.00 | 0.00 | 33 | 1011.9 |
| 20260506115029 | 20 | 216 | 1.6 | 9.7 | 0.00 | 0.00 | 0.00 | 33 | 1011.9 |
| 20260506114601 | 20 | 118 | 6.4 | 9.7 | 0.00 | 0.00 | 0.00 | 32 | 1012.0 |
| 20260506114044 | 20 | 79 | 0.0 | 4.8 | 0.00 | 0.00 | 0.00 | 33 | 1012.0 |
| 20260506113529 | 19 | 250 | 0.0 | 6.4 | 0.00 | 0.00 | 0.00 | 35 | 1012.1 |
| 20260506113033 | 19 | 158 | 4.8 | 11.3 | 0.00 | 0.00 | 0.00 | 34 | 1012.1 |
| 20260506112535 | 18 | 113 | 6.4 | 12.9 | 0.00 | 0.00 | 0.00 | 36 | 1012.2 |
| 20260506111522 | 18 | 108 | 4.8 | 11.3 | 0.00 | 0.00 | 0.00 | 36 | 1012.2 |
| 20260506111025 | 18 | 70 | 3.2 | 12.9 | 0.00 | 0.00 | 0.00 | 37 | 1012.2 |
| 20260506110521 | 18 | 176 | 3.2 | 14.5 | 0.00 | 0.00 | 0.00 | 37 | 1012.3 |
| 20260506110049 | 18 | 121 | 0.0 | 14.5 | 0.00 | 0.00 | 0.00 | 36 | 1012.3 |
| 20260506105533 | 18 | 229 | 6.4 | 9.7 | 0.00 | 0.00 | 0.00 | 37 | 1012.4 |
| 20260506105128 | 18 | 233 | 4.8 | 11.3 | 0.00 | 0.00 | 0.00 | 37 | 1010.8 |
| 20260506104617 | 18 | 295 | 6.4 | 11.3 | 0.00 | 0.00 | 0.00 | 37 | 1010.8 |
| 20260506104027 | 17 | 329 | 0.0 | 12.9 | 0.00 | 0.00 | 0.00 | 39 | 1012.5 |
| 20260506103042 | 17 | 76 | 0.0 | 17.7 | 0.00 | 0.00 | 0.00 | 40 | 1012.5 |
| 20260506102543 | 17 | 118 | 4.8 | 16.1 | 0.00 | 0.00 | 0.00 | 39 | 1012.5 |
| 20260506102031 | 17 | 77 | 8.0 | 16.1 | 0.00 | 0.00 | 0.00 | 38 | 1012.6 |
| 20260506101541 | 18 | 152 | 9.7 | 16.1 | 0.00 | 0.00 | 0.00 | 37 | 1012.6 |
| 20260506101024 | 18 | 77 | 1.6 | 11.3 | 0.00 | 0.00 | 0.00 | 39 | 1012.6 |
| 20260506100521 | 17 | 204 | 1.6 | 12.9 | 0.00 | 0.00 | 0.00 | 39 | 1012.8 |
| 20260506100043 | 17 | 122 | 3.2 | 12.9 | 0.00 | 0.00 | 0.00 | 42 | 1012.7 |
| 20260506095026 | 17 | 314 | 0.0 | 9.7 | 0.00 | 0.00 | 0.00 | 43 | 1012.7 |
| 20260506094618 | 17 | 15 | 1.6 | 9.7 | 0.00 | 0.00 | 0.00 | 43 | 1011.1 |
| 20260506094031 | 17 | 353 | 1.6 | 4.8 | 0.00 | 0.00 | 0.00 | 43 | 1012.6 |
| 20260506093606 | 16 | 124 | 1.6 | 6.4 | 0.00 | 0.00 | 0.00 | 46 | 1011.0 |
| 20260506093030 | 16 | 238 | 4.8 | 11.3 | 0.00 | 0.00 | 0.00 | 44 | 1012.6 |
| 20260506092551 | 16 | 124 | 3.2 | 11.3 | 0.00 | 0.00 | 0.00 | 43 | 1012.6 |
| 20260506092016 | 17 | 153 | 4.8 | 8.0 | 0.00 | 0.00 | 0.00 | 43 | 1012.6 |
| 20260506091534 | 16 | 292 | 3.2 | 9.7 | 0.00 | 0.00 | 0.00 | 44 | 1012.6 |
| 20260506091020 | 16 | 105 | 0.0 | 9.7 | 0.00 | 0.00 | 0.00 | 46 | 1012.6 |
| 20260506090519 | 16 | 142 | 4.8 | 11.3 | 0.00 | 0.00 | 0.00 | 46 | 1012.6 |
| 20260506090047 | 16 | 67 | 8.0 | 11.3 | 0.00 | 0.00 | 0.00 | 45 | 1012.6 |
| 20260506084541 | 16 | 89 | 6.4 | 9.7 | 0.00 | 0.00 | 0.00 | 47 | 1012.7 |
| 20260506084034 | 16 | 130 | 4.8 | 8.0 | 0.00 | 0.00 | 0.00 | 47 | 1012.7 |
| 20260506083517 | 16 | 108 | 0.0 | 3.2 | 0.00 | 0.00 | 0.00 | 49 | 1012.6 |
| 20260506083100 | 15 | 100 | 0.0 | 8.0 | 0.00 | 0.00 | 0.00 | 49 | 1012.7 |
| 20260506082520 | 16 | 94 | 0.0 | 8.0 | 0.00 | 0.00 | 0.00 | 49 | 1012.7 |
| 20260506082041 | 16 | 103 | 0.0 | 6.4 | 0.00 | 0.00 | 0.00 | 49 | 1012.7 |
| 20260506081024 | 15 | 359 | 0.0 | 1.6 | 0.00 | 0.00 | 0.00 | 53 | 1012.8 |
| 20260506080548 | 15 | 124 | 0.0 | 4.8 | 0.00 | 0.00 | 0.00 | 54 | 1012.8 |
| 20260506073522 | 13 | 101 | 3.2 | 6.4 | 0.00 | 0.00 | 0.00 | 57 | 1012.8 |
| 20260506073025 | 13 | 86 | 4.8 | 6.4 | 0.00 | 0.00 | 0.00 | 56 | 1012.9 |
| 20260506072616 | 13 | 66 | 1.6 | 4.8 | 0.00 | 0.00 | 0.00 | 57 | 1011.3 |
| 20260506072019 | 13 | 77 | 3.2 | 4.8 | 0.00 | 0.00 | 0.00 | 56 | 1011.9 |
| 20260506071528 | 13 | 330 | 0.0 | 3.2 | 0.00 | 0.00 | 0.00 | 57 | 1012.0 |
| 20260506070534 | 13 | 54 | 0.0 | 1.6 | 0.00 | 0.00 | 0.00 | 57 | 1011.9 |
| 20260506062048 | 11 | 284 | 0.0 | 0.0 | 0.00 | 0.00 | 0.00 | 64 | 1012.0 |
| 20260506061558 | 10 | 286 | 0.0 | 0.0 | 0.00 | 0.00 | 0.00 | 65 | 1011.9 |
| 20260506061036 | 10 | 285 | 0.0 | 0.0 | 0.00 | 0.00 | 0.00 | 66 | 1011.9 |
| 20260506060520 | 10 | 242 | 0.0 | 0.0 | 0.00 | 0.00 | 0.00 | 66 | 1011.9 |
| 20260506051027 | 9 | 254 | 0.0 | 0.0 | 0.00 | 0.00 | 0.00 | 68 | 1011.8 |
| 20260506050536 | 9 | 253 | 0.0 | 0.0 | 0.00 | 0.00 | 0.00 | 68 | 1011.8 |
| 20260506050108 | 9 | 253 | 0.0 | 0.0 | 0.00 | 0.00 | 0.00 | 68 | 1011.8 |
| 20260506045018 | 9 | 278 | 0.0 | 1.6 | 0.00 | 0.00 | 0.00 | 68 | 1011.8 |
| 20260506044524 | 9 | 278 | 0.0 | 0.0 | 0.00 | 0.00 | 0.00 | 67 | 1011.7 |
| 20260506044026 | 9 | 277 | 0.0 | 0.0 | 0.00 | 0.00 | 0.00 | 67 | 1011.7 |
| 20260506043523 | 9 | 280 | 0.0 | 0.0 | 0.00 | 0.00 | 0.00 | 67 | 1011.7 |
| 20260506043022 | 9 | 249 | 0.0 | 0.0 | 0.00 | 0.00 | 0.00 | 68 | 1011.6 |
| 20260506042524 | 9 | 245 | 0.0 | 3.2 | 0.00 | 0.00 | 0.00 | 68 | 1011.6 |
| 20260506042017 | 9 | 246 | 0.0 | 3.2 | 0.00 | 0.00 | 0.00 | 68 | 1011.7 |
| 20260506041516 | 9 | 344 | 0.0 | 0.0 | 0.00 | 0.00 | 0.00 | 68 | 1011.7 |
| 20260506041016 | 9 | 353 | 0.0 | 0.0 | 0.00 | 0.00 | 0.00 | 68 | 1011.7 |
| 20260506040544 | 9 | 360 | 0.0 | 0.0 | 0.00 | 0.00 | 0.00 | 67 | 1011.6 |
| 20260506040046 | 9 | 360 | 0.0 | 0.0 | 0.00 | 0.00 | 0.00 | 67 | 1011.6 |
| 20260506035528 | 10 | 68 | 0.0 | 1.6 | 0.00 | 0.00 | 0.00 | 66 | 1011.6 |
| 20260506035125 | 10 | 68 | 0.0 | 1.6 | 0.00 | 0.00 | 0.00 | 66 | 1010.9 |
| 20260506034529 | 10 | 39 | 0.0 | 0.0 | 0.00 | 0.00 | 0.00 | 66 | 1011.7 |
| 20260506034041 | 10 | 22 | 0.0 | 0.0 | 0.00 | 0.00 | 0.00 | 65 | 1011.7 |
| 20260506033529 | 10 | 31 | 0.0 | 1.6 | 0.00 | 0.00 | 0.00 | 63 | 1011.7 |
| 20260506033051 | 10 | 290 | 0.0 | 1.6 | 0.00 | 0.00 | 0.00 | 62 | 1011.6 |
| 20260506032535 | 10 | 110 | 0.0 | 0.0 | 0.00 | 0.00 | 0.00 | 62 | 1011.6 |
| 20260506032017 | 10 | 342 | 0.0 | 0.0 | 0.00 | 0.00 | 0.00 | 62 | 1011.6 |
| 20260506031530 | 10 | 12 | 0.0 | 0.0 | 0.00 | 0.00 | 0.00 | 61 | 1011.6 |
| 20260506031051 | 10 | 340 | 0.0 | 1.6 | 0.00 | 0.00 | 0.00 | 61 | 1011.6 |
| 20260506030548 | 10 | 339 | 0.0 | 1.6 | 0.00 | 0.00 | 0.00 | 61 | 1011.6 |
| 20260506030113 | 10 | 20 | 0.0 | 0.0 | 0.00 | 0.00 | 0.00 | 61 | 1011.6 |
| 20260506025534 | 10 | 19 | 0.0 | 0.0 | 0.00 | 0.00 | 0.00 | 61 | 1011.6 |
| 20260506025052 | 10 | 28 | 0.0 | 0.0 | 0.00 | 0.00 | 0.00 | 60 | 1011.6 |
| 20260506024538 | 10 | 29 | 0.0 | 0.0 | 0.00 | 0.00 | 0.00 | 60 | 1011.6 |
| 20260506024051 | 10 | 29 | 0.0 | 0.0 | 0.00 | 0.00 | 0.00 | 59 | 1011.7 |
| 20260506023549 | 10 | 29 | 0.0 | 0.0 | 0.00 | 0.00 | 0.00 | 60 | 1011.7 |
| 20260506023037 | 10 | 28 | 0.0 | 0.0 | 0.00 | 0.00 | 0.00 | 60 | 1011.7 |
| 20260506022539 | 11 | 300 | 0.0 | 0.0 | 0.00 | 0.00 | 0.00 | 59 | 1011.6 |
| 20260506022033 | 11 | 300 | 0.0 | 0.0 | 0.00 | 0.00 | 0.00 | 58 | 1011.6 |
| 20260506021535 | 11 | 300 | 0.0 | 0.0 | 0.00 | 0.00 | 0.00 | 58 | 1011.7 |
| 20260506021039 | 11 | 300 | 0.0 | 0.0 | 0.00 | 0.00 | 0.00 | 58 | 1011.7 |
| 20260506020553 | 11 | 300 | 0.0 | 0.0 | 0.00 | 0.00 | 0.00 | 58 | 1011.7 |
| 20260506020051 | 11 | 288 | 0.0 | 1.6 | 0.00 | 0.00 | 0.00 | 58 | 1011.7 |
| 20260506015530 | 11 | 302 | 1.6 | 1.6 | 0.00 | 0.00 | 0.00 | 58 | 1011.7 |
| 20260506015145 | 11 | 302 | 0.0 | 3.2 | 0.00 | 0.00 | 0.00 | 58 | 1011.2 |
| 20260506014028 | 10 | 294 | 0.0 | 1.6 | 0.00 | 0.00 | 0.00 | 60 | 1011.9 |